Time,TemperatureF,DewpointF,PressureIn,WindDirection,WindDirectionDegrees,WindSpeedMPH,WindSpeedGustMPH,Humidity,HourlyPrecipIn,Conditions,Clouds,dailyrainin,SoftwareType,DateUTC
2013-09-09 00:00:00,56.8,50.0,30.04,South,180,0.0,0.0,78,0.00,,,-99.99,open2300 version1.11,2013-09-09 04:00:00,
2013-09-09 00:05:00,56.8,50.0,30.04,South,180,0.0,0.0,78,0.00,,,-99.99,open2300 version1.11,2013-09-09 04:05:00,
2013-09-09 00:10:00,56.8,50.0,30.03,South,180,0.0,0.0,78,0.00,,,-99.99,open2300 version1.11,2013-09-09 04:10:00,
2013-09-09 00:15:00,56.8,50.4,30.03,South,180,0.0,0.0,79,0.00,,,-99.99,open2300 version1.11,2013-09-09 04:15:00,
2013-09-09 00:20:00,56.7,50.2,30.03,South,180,0.0,0.0,79,0.00,,,-99.99,open2300 version1.11,2013-09-09 04:20:00,
2013-09-09 00:25:00,56.5,50.0,30.04,South,180,0.0,0.0,79,0.00,,,-99.99,open2300 version1.11,2013-09-09 04:25:00,
2013-09-09 00:30:00,56.5,50.0,30.04,South,180,0.0,0.0,79,0.00,,,-99.99,open2300 version1.11,2013-09-09 04:30:00,
2013-09-09 00:35:00,56.3,50.2,30.04,South,180,0.0,0.0,80,0.00,,,-99.99,open2300 version1.11,2013-09-09 04:35:00,
2013-09-09 00:40:00,56.3,50.2,30.04,South,180,0.0,0.0,80,0.00,,,-99.99,open2300 version1.11,2013-09-09 04:40:00,
2013-09-09 00:45:00,56.1,50.0,30.04,South,180,0.0,0.0,80,0.00,,,-99.99,open2300 version1.11,2013-09-09 04:45:00,
2013-09-09 00:50:00,56.1,50.0,30.03,South,180,0.0,0.0,80,0.00,,,-99.99,open2300 version1.11,2013-09-09 04:50:00,
2013-09-09 00:55:00,56.1,50.0,30.03,South,180,0.0,0.0,80,0.00,,,-99.99,open2300 version1.11,2013-09-09 04:55:00,
2013-09-09 01:10:00,55.9,49.8,30.04,South,180,0.0,0.0,80,0.00,,,-99.99,open2300 version1.11,2013-09-09 05:10:00,
2013-09-09 01:15:00,55.6,49.8,30.04,South,180,0.0,0.0,81,0.00,,,-99.99,open2300 version1.11,2013-09-09 05:15:00,
2013-09-09 01:20:00,55.4,49.6,30.04,South,180,0.0,0.0,81,0.00,,,-99.99,open2300 version1.11,2013-09-09 05:20:00,
2013-09-09 01:25:00,55.2,49.4,30.04,South,180,0.0,0.0,81,0.00,,,-99.99,open2300 version1.11,2013-09-09 05:25:00,
2013-09-09 01:30:00,55.2,49.4,30.04,South,180,0.0,0.0,81,0.00,,,-99.99,open2300 version1.11,2013-09-09 05:30:00,
2013-09-09 01:35:00,55.2,49.4,30.05,South,180,0.0,0.0,81,0.00,,,-99.99,open2300 version1.11,2013-09-09 05:35:00,
2013-09-09 01:40:00,55.0,49.3,30.05,South,180,0.0,0.0,81,0.00,,,-99.99,open2300 version1.11,2013-09-09 05:40:00,
2013-09-09 01:45:00,54.7,49.3,30.05,South,180,0.0,0.0,82,0.00,,,-99.99,open2300 version1.11,2013-09-09 05:45:00,
2013-09-09 01:50:00,54.7,49.3,30.05,South,180,0.0,0.0,82,0.00,,,-99.99,open2300 version1.11,2013-09-09 05:50:00,
2013-09-09 01:55:00,54.5,49.1,30.05,South,180,0.0,0.0,82,0.00,,,-99.99,open2300 version1.11,2013-09-09 05:55:00,
2013-09-09 02:05:00,54.3,48.9,30.04,South,180,0.0,0.0,82,0.00,,,-99.99,open2300 version1.11,2013-09-09 06:05:00,
2013-09-09 02:10:00,54.0,48.9,30.05,South,180,0.0,0.0,83,0.00,,,-99.99,open2300 version1.11,2013-09-09 06:10:00,
2013-09-09 02:15:00,54.0,48.9,30.05,South,180,0.0,0.0,83,0.00,,,-99.99,open2300 version1.11,2013-09-09 06:15:00,
2013-09-09 02:20:00,53.8,48.7,30.05,South,180,0.0,0.0,83,0.00,,,-99.99,open2300 version1.11,2013-09-09 06:20:00,
2013-09-09 02:25:00,53.8,48.7,30.05,South,180,0.0,0.0,83,0.00,,,-99.99,open2300 version1.11,2013-09-09 06:25:00,
2013-09-09 02:35:00,53.6,48.9,30.05,South,180,0.0,0.0,84,0.00,,,-99.99,open2300 version1.11,2013-09-09 06:35:00,
2013-09-09 02:40:00,53.4,48.7,30.04,South,180,0.0,0.0,84,0.00,,,-99.99,open2300 version1.11,2013-09-09 06:40:00,
2013-09-09 02:45:00,53.4,48.7,30.04,South,180,0.0,0.0,84,0.00,,,-99.99,open2300 version1.11,2013-09-09 06:45:00,
2013-09-09 02:50:00,53.4,48.7,30.04,South,180,0.0,0.0,84,0.00,,,-99.99,open2300 version1.11,2013-09-09 06:50:00,
2013-09-09 02:55:00,53.4,48.7,30.04,South,180,0.0,0.0,84,0.00,,,-99.99,open2300 version1.11,2013-09-09 06:55:00,
2013-09-09 03:00:00,53.4,49.0,30.04,South,180,0.0,0.0,85,0.00,,,-99.99,open2300 version1.11,2013-09-09 07:00:00,
2013-09-09 03:05:00,53.4,49.0,30.04,South,180,0.0,0.0,85,0.00,,,-99.99,open2300 version1.11,2013-09-09 07:05:00,
2013-09-09 03:10:00,53.4,49.0,30.04,South,180,0.0,0.0,85,0.00,,,-99.99,open2300 version1.11,2013-09-09 07:10:00,
2013-09-09 03:15:00,53.8,49.4,30.04,South,180,0.0,0.0,85,0.00,,,-99.99,open2300 version1.11,2013-09-09 07:15:00,
2013-09-09 03:20:00,53.8,49.4,30.04,South,180,0.0,0.0,85,0.00,,,-99.99,open2300 version1.11,2013-09-09 07:20:00,
2013-09-09 03:25:00,53.8,49.7,30.04,South,180,0.0,0.0,86,0.00,,,-99.99,open2300 version1.11,2013-09-09 07:25:00,
2013-09-09 03:30:00,54.0,49.8,30.04,South,180,0.0,0.0,86,0.00,,,-99.99,open2300 version1.11,2013-09-09 07:30:00,
2013-09-09 03:35:00,54.1,50.0,30.04,South,180,0.0,0.0,86,0.00,,,-99.99,open2300 version1.11,2013-09-09 07:35:00,
2013-09-09 03:40:00,54.3,50.2,30.04,South,180,0.0,0.0,86,0.00,,,-99.99,open2300 version1.11,2013-09-09 07:40:00,
2013-09-09 03:45:00,54.3,50.2,30.04,South,180,0.0,0.0,86,0.00,,,-99.99,open2300 version1.11,2013-09-09 07:45:00,
2013-09-09 03:50:00,54.5,50.4,30.04,South,180,0.0,0.0,86,0.00,,,-99.99,open2300 version1.11,2013-09-09 07:50:00,
2013-09-09 03:55:00,54.7,50.5,30.04,South,180,0.0,0.0,86,0.00,,,-99.99,open2300 version1.11,2013-09-09 07:55:00,
2013-09-09 04:00:00,54.9,50.7,30.04,South,180,0.0,0.0,86,0.00,,,-99.99,open2300 version1.11,2013-09-09 08:00:00,
2013-09-09 04:05:00,55.0,50.9,30.04,South,180,0.0,0.0,86,0.00,,,-99.99,open2300 version1.11,2013-09-09 08:05:00,
2013-09-09 04:10:00,55.2,51.0,30.04,South,180,0.0,0.0,86,0.00,,,-99.99,open2300 version1.11,2013-09-09 08:10:00,
2013-09-09 04:15:00,55.2,51.0,30.03,South,180,0.0,0.0,86,0.00,,,-99.99,open2300 version1.11,2013-09-09 08:15:00,
2013-09-09 04:20:00,55.4,51.2,30.03,South,180,0.0,0.0,86,0.00,,,-99.99,open2300 version1.11,2013-09-09 08:20:00,
2013-09-09 04:25:00,55.6,51.4,30.03,South,180,0.0,0.0,86,0.00,,,-99.99,open2300 version1.11,2013-09-09 08:25:00,
2013-09-09 04:30:00,55.8,51.6,30.04,South,180,0.0,0.0,86,0.00,,,-99.99,open2300 version1.11,2013-09-09 08:30:00,
2013-09-09 04:35:00,55.9,52.1,30.03,South,180,0.0,0.0,87,0.00,,,-99.99,open2300 version1.11,2013-09-09 08:35:00,
2013-09-09 04:40:00,56.1,52.3,30.03,South,180,0.0,0.0,87,0.00,,,-99.99,open2300 version1.11,2013-09-09 08:40:00,
2013-09-09 04:45:00,56.3,52.1,30.03,South,180,0.0,0.0,86,0.00,,,-99.99,open2300 version1.11,2013-09-09 08:45:00,
2013-09-09 04:50:00,56.3,52.1,30.03,South,180,0.0,0.0,86,0.00,,,-99.99,open2300 version1.11,2013-09-09 08:50:00,
2013-09-09 04:55:00,56.5,52.3,30.03,South,180,0.0,0.0,86,0.00,,,-99.99,open2300 version1.11,2013-09-09 08:55:00,
2013-09-09 05:00:00,56.5,52.3,30.03,South,180,0.0,0.0,86,0.00,,,-99.99,open2300 version1.11,2013-09-09 09:00:00,
2013-09-09 05:05:00,56.8,52.7,30.03,South,180,0.0,0.0,86,0.00,,,-99.99,open2300 version1.11,2013-09-09 09:05:00,
2013-09-09 05:10:00,56.8,52.7,30.03,South,180,0.0,0.2,86,0.00,,,-99.99,open2300 version1.11,2013-09-09 09:10:00,
2013-09-09 05:15:00,56.8,52.7,30.03,South,180,0.0,0.0,86,0.00,,,-99.99,open2300 version1.11,2013-09-09 09:15:00,
2013-09-09 05:20:00,57.0,52.8,30.03,South,180,0.0,0.0,86,0.00,,,-99.99,open2300 version1.11,2013-09-09 09:20:00,
2013-09-09 05:25:00,57.0,53.2,30.03,South,180,0.0,0.0,87,0.00,,,-99.99,open2300 version1.11,2013-09-09 09:25:00,
2013-09-09 05:30:00,57.0,53.2,30.03,South,180,0.0,0.0,87,0.00,,,-99.99,open2300 version1.11,2013-09-09 09:30:00,
2013-09-09 05:35:00,57.0,52.8,30.02,South,180,0.0,0.0,86,0.00,,,-99.99,open2300 version1.11,2013-09-09 09:35:00,
2013-09-09 05:40:00,57.2,53.0,30.02,South,180,0.0,0.0,86,0.00,,,-99.99,open2300 version1.11,2013-09-09 09:40:00,
2013-09-09 05:45:00,57.4,53.2,30.02,South,180,0.0,0.0,86,0.00,,,-99.99,open2300 version1.11,2013-09-09 09:45:00,
2013-09-09 05:50:00,57.4,53.2,30.02,South,180,0.0,0.0,86,0.00,,,-99.99,open2300 version1.11,2013-09-09 09:50:00,
2013-09-09 05:55:00,57.4,53.5,30.02,South,180,0.0,0.0,87,0.00,,,-99.99,open2300 version1.11,2013-09-09 09:55:00,
2013-09-09 06:00:00,57.4,53.5,30.02,South,180,0.0,0.0,87,0.00,,,-99.99,open2300 version1.11,2013-09-09 10:00:00,
2013-09-09 06:05:00,57.4,53.5,30.02,South,180,0.0,0.0,87,0.00,,,-99.99,open2300 version1.11,2013-09-09 10:05:00,
2013-09-09 06:10:00,57.6,53.7,30.02,South,180,0.0,0.0,87,0.00,,,-99.99,open2300 version1.11,2013-09-09 10:10:00,
2013-09-09 06:15:00,57.6,53.7,30.02,South,180,0.0,0.0,87,0.00,,,-99.99,open2300 version1.11,2013-09-09 10:15:00,
2013-09-09 06:20:00,57.7,53.9,30.02,South,180,0.0,0.0,87,0.00,,,-99.99,open2300 version1.11,2013-09-09 10:20:00,
2013-09-09 06:25:00,57.7,53.9,30.02,SSE,157,0.0,0.0,87,0.00,,,-99.99,open2300 version1.11,2013-09-09 10:25:00,
2013-09-09 06:30:00,57.9,53.7,30.02,SSE,157,0.0,0.0,86,0.00,,,-99.99,open2300 version1.11,2013-09-09 10:30:00,
2013-09-09 06:35:00,57.9,53.7,30.02,SSE,157,0.0,0.0,86,0.00,,,-99.99,open2300 version1.11,2013-09-09 10:35:00,
2013-09-09 06:40:00,58.1,53.9,30.02,SSE,157,0.0,0.0,86,0.00,,,-99.99,open2300 version1.11,2013-09-09 10:40:00,
2013-09-09 06:45:00,58.1,53.9,30.02,SSE,157,0.0,0.0,86,0.00,,,-99.99,open2300 version1.11,2013-09-09 10:45:00,
2013-09-09 06:50:00,58.3,54.1,30.02,SSE,157,0.0,0.0,86,0.00,,,-99.99,open2300 version1.11,2013-09-09 10:50:00,
2013-09-09 06:55:00,58.3,54.1,30.02,SSE,157,0.0,0.0,86,0.00,,,-99.99,open2300 version1.11,2013-09-09 10:55:00,
2013-09-09 07:00:00,58.3,54.1,30.02,SSE,157,0.0,0.0,86,0.00,,,-99.99,open2300 version1.11,2013-09-09 11:00:00,
2013-09-09 07:05:00,58.5,54.3,30.02,SSE,157,0.0,0.0,86,0.00,,,-99.99,open2300 version1.11,2013-09-09 11:05:00,
2013-09-09 07:10:00,58.6,54.5,30.02,SSE,157,0.0,0.0,86,0.00,,,-99.99,open2300 version1.11,2013-09-09 11:10:00,
2013-09-09 07:15:00,58.6,54.5,30.02,SSE,157,0.0,0.0,86,0.00,,,-99.99,open2300 version1.11,2013-09-09 11:15:00,
2013-09-09 07:20:00,58.6,54.5,30.02,SSE,157,0.0,0.0,86,0.00,,,-99.99,open2300 version1.11,2013-09-09 11:20:00,
2013-09-09 07:25:00,58.8,55.0,30.02,SSE,157,0.0,0.0,87,0.00,,,-99.99,open2300 version1.11,2013-09-09 11:25:00,
2013-09-09 07:30:00,58.8,55.0,30.03,SSE,157,0.0,0.0,87,0.00,,,-99.99,open2300 version1.11,2013-09-09 11:30:00,
2013-09-09 07:35:00,58.8,55.0,30.03,SSE,157,0.0,0.0,87,0.00,,,-99.99,open2300 version1.11,2013-09-09 11:35:00,
2013-09-09 07:40:00,58.8,55.0,30.03,SSE,157,0.0,0.0,87,0.00,,,-99.99,open2300 version1.11,2013-09-09 11:40:00,
2013-09-09 07:45:00,59.2,55.3,30.03,SSE,157,0.0,0.0,87,0.00,,,-99.99,open2300 version1.11,2013-09-09 11:45:00,
2013-09-09 07:50:00,59.4,55.5,30.03,SSE,157,0.0,0.0,87,0.00,,,-99.99,open2300 version1.11,2013-09-09 11:50:00,
2013-09-09 07:55:00,59.4,55.5,30.03,SSE,157,0.1,2.0,87,0.00,,,-99.99,open2300 version1.11,2013-09-09 11:55:00,
2013-09-09 08:00:00,59.5,55.7,30.02,SSE,157,0.0,0.7,87,0.00,,,-99.99,open2300 version1.11,2013-09-09 12:00:00,
2013-09-09 08:05:00,59.5,55.7,30.02,SSE,157,0.0,0.0,87,0.00,,,-99.99,open2300 version1.11,2013-09-09 12:05:00,
2013-09-09 08:10:00,59.9,55.7,30.02,SSE,157,0.0,0.0,86,0.00,,,-99.99,open2300 version1.11,2013-09-09 12:10:00,
2013-09-09 08:15:00,59.9,55.7,30.02,SSE,157,0.0,0.0,86,0.00,,,-99.99,open2300 version1.11,2013-09-09 12:15:00,
2013-09-09 08:20:00,60.1,55.9,30.02,SSE,157,0.0,0.0,86,0.00,,,-99.99,open2300 version1.11,2013-09-09 12:20:00,
2013-09-09 08:25:00,60.3,56.1,30.02,SSE,157,0.0,0.0,86,0.00,,,-99.99,open2300 version1.11,2013-09-09 12:25:00,
2013-09-09 08:30:00,60.4,55.9,30.02,SSE,157,0.0,0.0,85,0.00,,,-99.99,open2300 version1.11,2013-09-09 12:30:00,
2013-09-09 08:35:00,60.4,55.9,30.02,SSE,157,0.0,0.0,85,0.00,,,-99.99,open2300 version1.11,2013-09-09 12:35:00,
2013-09-09 08:40:00,60.6,56.1,30.02,SSE,157,0.0,0.0,85,0.00,,,-99.99,open2300 version1.11,2013-09-09 12:40:00,
2013-09-09 08:45:00,60.6,56.1,30.02,SSE,157,0.3,2.7,85,0.00,,,-99.99,open2300 version1.11,2013-09-09 12:45:00,
2013-09-09 08:50:00,61.0,56.5,30.02,SSE,157,0.1,1.1,85,0.00,,,-99.99,open2300 version1.11,2013-09-09 12:50:00,
2013-09-09 08:55:00,61.0,56.5,30.02,SSE,157,0.0,0.7,85,0.00,,,-99.99,open2300 version1.11,2013-09-09 12:55:00,
2013-09-09 09:00:00,61.2,56.6,30.02,SSE,157,0.0,0.7,85,0.00,,,-99.99,open2300 version1.11,2013-09-09 13:00:00,
2013-09-09 09:05:00,61.3,56.5,30.02,SSE,157,0.0,0.0,84,0.00,,,-99.99,open2300 version1.11,2013-09-09 13:05:00,
2013-09-09 09:10:00,61.3,56.5,30.02,SSE,157,0.0,0.0,84,0.00,,,-99.99,open2300 version1.11,2013-09-09 13:10:00,
2013-09-09 09:15:00,61.5,56.6,30.01,SSE,157,0.0,0.0,84,0.00,,,-99.99,open2300 version1.11,2013-09-09 13:15:00,
2013-09-09 09:20:00,61.5,56.3,30.00,SSE,157,0.0,0.0,83,0.00,,,-99.99,open2300 version1.11,2013-09-09 13:20:00,
2013-09-09 09:25:00,61.5,56.3,30.00,SSE,157,0.0,0.0,83,0.00,,,-99.99,open2300 version1.11,2013-09-09 13:25:00,
2013-09-09 09:30:00,61.5,56.0,30.00,SSE,157,0.0,0.0,82,0.00,,,-99.99,open2300 version1.11,2013-09-09 13:30:00,
2013-09-09 09:35:00,61.5,56.0,30.00,SSE,157,0.0,0.0,82,0.00,,,-99.99,open2300 version1.11,2013-09-09 13:35:00,
2013-09-09 09:40:00,61.9,56.3,30.01,SSE,157,0.0,0.0,82,0.00,,,-99.99,open2300 version1.11,2013-09-09 13:40:00,
2013-09-09 09:45:00,61.9,56.3,30.01,SSE,157,0.0,0.0,82,0.00,,,-99.99,open2300 version1.11,2013-09-09 13:45:00,
2013-09-09 09:50:00,62.2,56.6,30.01,SSE,157,0.0,0.0,82,0.00,,,-99.99,open2300 version1.11,2013-09-09 13:50:00,
2013-09-09 09:55:00,62.4,56.8,30.00,SSE,157,0.0,0.9,82,0.00,,,-99.99,open2300 version1.11,2013-09-09 13:55:00,
2013-09-09 10:00:00,62.4,56.8,30.01,SSE,157,0.0,0.0,82,0.00,,,-99.99,open2300 version1.11,2013-09-09 14:00:00,
2013-09-09 10:05:00,62.4,56.8,30.01,SSE,157,0.0,0.0,82,0.00,,,-99.99,open2300 version1.11,2013-09-09 14:05:00,
2013-09-09 10:10:00,62.8,56.8,30.01,SSE,157,0.0,0.0,81,0.00,,,-99.99,open2300 version1.11,2013-09-09 14:10:00,
2013-09-09 10:15:00,63.0,57.0,30.01,SSE,157,0.0,0.0,81,0.00,,,-99.99,open2300 version1.11,2013-09-09 14:15:00,
2013-09-09 10:20:00,63.1,57.2,30.00,SSE,157,0.0,1.1,81,0.00,,,-99.99,open2300 version1.11,2013-09-09 14:20:00,
2013-09-09 10:25:00,63.1,57.2,30.01,SSE,157,0.0,0.0,81,0.00,,,-99.99,open2300 version1.11,2013-09-09 14:25:00,
2013-09-09 10:30:00,63.3,57.4,30.01,SSE,157,0.6,4.0,81,0.00,,,-99.99,open2300 version1.11,2013-09-09 14:30:00,
2013-09-09 10:35:00,63.7,57.7,30.02,SSE,157,0.6,6.5,81,0.00,,,-99.99,open2300 version1.11,2013-09-09 14:35:00,
2013-09-09 10:40:00,63.7,57.4,30.01,SSE,157,0.2,1.8,80,0.00,,,-99.99,open2300 version1.11,2013-09-09 14:40:00,
2013-09-09 10:45:00,64.0,58.1,30.01,SSE,157,0.0,0.0,81,0.00,,,-99.99,open2300 version1.11,2013-09-09 14:45:00,
2013-09-09 10:50:00,64.0,58.1,30.02,SSE,157,0.0,1.1,81,0.00,,,-99.99,open2300 version1.11,2013-09-09 14:50:00,
2013-09-09 10:55:00,64.0,58.1,30.02,SSE,157,0.1,1.1,81,0.00,,,-99.99,open2300 version1.11,2013-09-09 14:55:00,
2013-09-09 11:00:00,64.0,57.7,30.01,SSE,157,0.1,1.3,80,0.00,,,-99.99,open2300 version1.11,2013-09-09 15:00:00,
2013-09-09 11:05:00,63.9,57.6,30.01,SSE,157,0.0,0.0,80,0.00,,,-99.99,open2300 version1.11,2013-09-09 15:05:00,
2013-09-09 11:10:00,63.9,57.6,30.01,SSE,157,0.0,0.0,80,0.00,,,-99.99,open2300 version1.11,2013-09-09 15:10:00,
2013-09-09 11:15:00,63.7,57.4,30.02,SSE,157,0.0,0.0,80,0.00,,,-99.99,open2300 version1.11,2013-09-09 15:15:00,
2013-09-09 11:20:00,64.0,58.1,30.02,SSE,157,0.0,0.0,81,0.00,,,-99.99,open2300 version1.11,2013-09-09 15:20:00,
2013-09-09 11:25:00,63.9,57.6,30.02,SSE,157,0.0,0.0,80,0.00,,,-99.99,open2300 version1.11,2013-09-09 15:25:00,
2013-09-09 11:30:00,64.0,58.1,30.02,SSE,157,0.0,0.0,81,0.00,,,-99.99,open2300 version1.11,2013-09-09 15:30:00,
2013-09-09 11:35:00,64.0,58.1,30.02,SSE,157,0.0,0.0,81,0.00,,,-99.99,open2300 version1.11,2013-09-09 15:35:00,
2013-09-09 11:40:00,64.2,58.3,30.02,SSE,157,0.0,0.0,81,0.00,,,-99.99,open2300 version1.11,2013-09-09 15:40:00,
2013-09-09 11:45:00,64.0,58.1,30.02,SSE,157,0.0,0.0,81,0.00,,,-99.99,open2300 version1.11,2013-09-09 15:45:00,
2013-09-09 11:50:00,64.0,58.1,30.02,SSE,157,0.0,0.0,81,0.00,,,-99.99,open2300 version1.11,2013-09-09 15:50:00,
2013-09-09 11:55:00,64.2,58.3,30.02,SSE,157,0.0,0.0,81,0.00,,,-99.99,open2300 version1.11,2013-09-09 15:55:00,
2013-09-09 12:00:00,64.0,58.1,30.02,SSE,157,0.0,0.0,81,0.00,,,-99.99,open2300 version1.11,2013-09-09 16:00:00,
2013-09-09 12:05:00,64.0,58.1,30.02,SSE,157,0.0,0.0,81,0.00,,,-99.99,open2300 version1.11,2013-09-09 16:05:00,
2013-09-09 12:10:00,64.0,58.1,30.01,SSE,157,0.2,3.1,81,0.00,,,-99.99,open2300 version1.11,2013-09-09 16:10:00,
2013-09-09 12:15:00,64.0,58.4,30.01,SSE,157,0.0,0.0,82,0.00,,,-99.99,open2300 version1.11,2013-09-09 16:15:00,
2013-09-09 12:20:00,63.7,58.1,30.01,NE,45,0.0,0.0,82,0.02,,,-99.99,open2300 version1.11,2013-09-09 16:20:00,
2013-09-09 12:25:00,63.5,58.2,30.01,SSE,157,0.0,0.0,83,0.04,,,-99.99,open2300 version1.11,2013-09-09 16:25:00,
2013-09-09 12:30:00,63.3,58.0,30.01,SSE,157,0.0,0.0,83,0.04,,,-99.99,open2300 version1.11,2013-09-09 16:30:00,
2013-09-09 12:35:00,63.3,58.4,30.00,SSE,157,0.3,2.0,84,0.06,,,-99.99,open2300 version1.11,2013-09-09 16:35:00,
2013-09-09 12:40:00,63.1,58.5,30.00,SSE,157,0.1,1.8,85,0.06,,,-99.99,open2300 version1.11,2013-09-09 16:40:00,
2013-09-09 12:45:00,63.1,58.5,29.99,South,180,0.1,2.0,85,0.06,,,-99.99,open2300 version1.11,2013-09-09 16:45:00,
2013-09-09 12:50:00,63.1,58.9,29.99,SSE,157,0.0,0.0,86,0.08,,,-99.99,open2300 version1.11,2013-09-09 16:50:00,
2013-09-09 12:55:00,63.1,58.9,29.98,South,180,0.0,0.0,86,0.08,,,-99.99,open2300 version1.11,2013-09-09 16:55:00,
2013-09-09 13:00:00,63.1,58.9,29.97,SSE,162,0.4,5.8,86,0.10,,,-99.99,open2300 version1.11,2013-09-09 17:00:00,
2013-09-09 13:05:00,63.1,59.2,29.96,SSE,168,0.5,5.4,87,0.10,,,-99.99,open2300 version1.11,2013-09-09 17:05:00,
2013-09-09 13:10:00,63.1,59.2,29.96,SSE,162,0.7,4.2,87,0.10,,,-99.99,open2300 version1.11,2013-09-09 17:10:00,
2013-09-09 13:15:00,63.1,59.2,29.96,South,171,0.3,3.8,87,0.08,,,-99.99,open2300 version1.11,2013-09-09 17:15:00,
2013-09-09 13:20:00,63.3,59.8,29.96,SSE,157,0.3,6.9,88,0.10,,,-99.99,open2300 version1.11,2013-09-09 17:20:00,
2013-09-09 13:25:00,63.5,59.9,29.97,SSE,162,0.7,6.9,88,0.08,,,-99.99,open2300 version1.11,2013-09-09 17:25:00,
2013-09-09 13:30:00,63.5,59.9,29.97,SSE,160,0.4,2.2,88,0.06,,,-99.99,open2300 version1.11,2013-09-09 17:30:00,
2013-09-09 13:35:00,63.5,59.9,29.96,SSE,157,0.0,0.0,88,0.06,,,-99.99,open2300 version1.11,2013-09-09 17:35:00,
2013-09-09 13:40:00,63.7,60.1,29.97,SSE,157,0.1,2.7,88,0.06,,,-99.99,open2300 version1.11,2013-09-09 17:40:00,
2013-09-09 13:45:00,63.7,60.5,29.97,SSE,157,0.0,0.0,89,0.04,,,-99.99,open2300 version1.11,2013-09-09 17:45:00,
2013-09-09 13:50:00,64.0,60.8,29.97,SSE,157,0.0,0.0,89,0.04,,,-99.99,open2300 version1.11,2013-09-09 17:50:00,
2013-09-09 13:55:00,64.0,60.8,29.97,SSE,157,0.0,0.0,89,0.04,,,-99.99,open2300 version1.11,2013-09-09 17:55:00,
2013-09-09 14:00:00,64.2,61.0,29.96,SSE,157,0.0,0.0,89,0.02,,,-99.99,open2300 version1.11,2013-09-09 18:00:00,
2013-09-09 14:05:00,64.2,61.3,29.97,SSE,157,0.0,0.0,90,0.02,,,-99.99,open2300 version1.11,2013-09-09 18:05:00,
2013-09-09 14:10:00,64.6,61.7,29.97,SSE,157,0.0,0.0,90,0.02,,,-99.99,open2300 version1.11,2013-09-09 18:10:00,
2013-09-09 14:15:00,64.9,62.0,29.97,SSE,157,0.0,0.0,90,0.02,,,-99.99,open2300 version1.11,2013-09-09 18:15:00,
2013-09-09 14:20:00,64.9,62.0,29.97,SSE,157,0.0,0.0,90,0.00,,,-99.99,open2300 version1.11,2013-09-09 18:20:00,
2013-09-09 14:25:00,65.1,62.2,29.96,SSE,157,0.0,0.0,90,0.00,,,-99.99,open2300 version1.11,2013-09-09 18:25:00,
2013-09-09 14:30:00,65.3,62.3,29.97,SSE,157,0.0,0.0,90,0.00,,,-99.99,open2300 version1.11,2013-09-09 18:30:00,
2013-09-09 14:35:00,65.3,62.3,29.96,SSE,157,0.0,0.0,90,0.00,,,-99.99,open2300 version1.11,2013-09-09 18:35:00,
2013-09-09 14:40:00,65.7,62.6,29.96,SSE,157,0.1,1.3,90,0.00,,,-99.99,open2300 version1.11,2013-09-09 18:40:00,
2013-09-09 14:45:00,66.0,63.0,29.96,SSE,157,0.0,0.0,90,0.00,,,-99.99,open2300 version1.11,2013-09-09 18:45:00,
2013-09-09 14:50:00,66.0,63.0,29.95,SSE,157,0.0,0.0,90,0.00,,,-99.99,open2300 version1.11,2013-09-09 18:50:00,
2013-09-09 14:55:00,66.6,63.5,29.95,SSE,157,0.1,2.0,90,0.00,,,-99.99,open2300 version1.11,2013-09-09 18:55:00,
2013-09-09 15:00:00,66.7,63.7,29.95,SSE,165,0.4,3.4,90,0.00,,,-99.99,open2300 version1.11,2013-09-09 19:00:00,
2013-09-09 15:05:00,67.1,64.0,29.95,SSE,160,0.5,4.9,90,0.00,,,-99.99,open2300 version1.11,2013-09-09 19:05:00,
2013-09-09 15:10:00,67.5,64.4,29.94,SSE,157,0.4,2.7,90,0.00,,,-99.99,open2300 version1.11,2013-09-09 19:10:00,
2013-09-09 15:15:00,67.8,64.8,29.94,SSE,157,0.2,1.6,90,0.00,,,-99.99,open2300 version1.11,2013-09-09 19:15:00,
2013-09-09 15:20:00,68.2,65.1,29.94,SSE,157,0.2,1.8,90,0.00,,,-99.99,open2300 version1.11,2013-09-09 19:20:00,
2013-09-09 15:25:00,68.5,65.5,29.95,SSE,159,0.6,6.0,90,0.00,,,-99.99,open2300 version1.11,2013-09-09 19:25:00,
2013-09-09 15:30:00,68.7,65.3,29.94,SSE,157,0.1,1.8,89,0.00,,,-99.99,open2300 version1.11,2013-09-09 19:30:00,
2013-09-09 15:35:00,69.1,65.7,29.94,SSE,157,0.8,4.2,89,0.00,,,-99.99,open2300 version1.11,2013-09-09 19:35:00,
2013-09-09 15:40:00,69.3,65.9,29.94,SSE,157,0.0,0.0,89,0.00,,,-99.99,open2300 version1.11,2013-09-09 19:40:00,
2013-09-09 15:45:00,69.4,66.0,29.93,SSE,157,0.2,2.0,89,0.00,,,-99.99,open2300 version1.11,2013-09-09 19:45:00,
2013-09-09 15:50:00,69.6,66.2,29.93,SSE,167,1.4,6.5,89,0.00,,,-99.99,open2300 version1.11,2013-09-09 19:50:00,
2013-09-09 15:55:00,70.0,66.6,29.93,SSE,165,1.1,4.2,89,0.00,,,-99.99,open2300 version1.11,2013-09-09 19:55:00,
2013-09-09 16:00:00,70.2,66.4,29.92,SSE,163,1.1,7.8,88,0.00,,,-99.99,open2300 version1.11,2013-09-09 20:00:00,
2013-09-09 16:05:00,70.3,66.6,29.93,SSE,157,0.0,0.0,88,0.00,,,-99.99,open2300 version1.11,2013-09-09 20:05:00,
2013-09-09 16:10:00,70.7,67.0,29.93,SSE,157,0.0,1.6,88,0.00,,,-99.99,open2300 version1.11,2013-09-09 20:10:00,
2013-09-09 16:15:00,70.9,67.1,29.93,SSE,160,0.4,2.9,88,0.00,,,-99.99,open2300 version1.11,2013-09-09 20:15:00,
2013-09-09 16:20:00,71.1,67.0,29.93,NNE,22,0.1,1.1,87,0.00,,,-99.99,open2300 version1.11,2013-09-09 20:20:00,
2013-09-09 16:25:00,71.2,67.2,29.93,SSE,157,0.9,4.9,87,0.00,,,-99.99,open2300 version1.11,2013-09-09 20:25:00,
2013-09-09 16:30:00,71.2,67.2,29.93,SSE,157,0.0,1.1,87,0.00,,,-99.99,open2300 version1.11,2013-09-09 20:30:00,
2013-09-09 16:35:00,71.4,67.3,29.92,SSE,157,0.0,0.0,87,0.00,,,-99.99,open2300 version1.11,2013-09-09 20:35:00,
2013-09-09 16:40:00,71.4,67.3,29.92,SSE,157,0.1,1.3,87,0.00,,,-99.99,open2300 version1.11,2013-09-09 20:40:00,
2013-09-09 16:45:00,71.4,67.3,29.92,NNE,22,0.0,0.7,87,0.00,,,-99.99,open2300 version1.11,2013-09-09 20:45:00,
2013-09-09 16:50:00,71.8,67.7,29.92,SSE,168,0.4,1.8,87,0.00,,,-99.99,open2300 version1.11,2013-09-09 20:50:00,
2013-09-09 16:55:00,71.8,67.7,29.92,SSE,157,1.3,5.6,87,0.00,,,-99.99,open2300 version1.11,2013-09-09 20:55:00,
2013-09-09 17:00:00,71.8,67.7,29.92,SSE,157,0.2,2.2,87,0.00,,,-99.99,open2300 version1.11,2013-09-09 21:00:00,
2013-09-09 17:05:00,71.8,67.7,29.92,SSE,157,0.1,1.6,87,0.00,,,-99.99,open2300 version1.11,2013-09-09 21:05:00,
2013-09-09 17:10:00,71.8,67.7,29.92,SSE,157,0.3,2.5,87,0.00,,,-99.99,open2300 version1.11,2013-09-09 21:10:00,
2013-09-09 17:15:00,71.8,67.7,29.91,SSE,157,0.1,2.5,87,0.00,,,-99.99,open2300 version1.11,2013-09-09 21:15:00,
2013-09-09 17:20:00,71.8,67.7,29.91,SSE,157,0.2,2.0,87,0.00,,,-99.99,open2300 version1.11,2013-09-09 21:20:00,
2013-09-09 17:25:00,71.8,67.7,29.91,ENE,64,0.2,1.3,87,0.00,,,-99.99,open2300 version1.11,2013-09-09 21:25:00,
2013-09-09 17:30:00,71.8,67.7,29.91,NE,45,0.0,0.7,87,0.00,,,-99.99,open2300 version1.11,2013-09-09 21:30:00,
2013-09-09 17:35:00,71.8,67.7,29.91,NE,45,0.1,1.3,87,0.00,,,-99.99,open2300 version1.11,2013-09-09 21:35:00,
2013-09-09 17:40:00,71.8,67.7,29.92,SSE,157,0.3,4.7,87,0.00,,,-99.99,open2300 version1.11,2013-09-09 21:40:00,
2013-09-09 17:45:00,72.0,67.9,29.91,SSE,157,0.6,5.4,87,0.00,,,-99.99,open2300 version1.11,2013-09-09 21:45:00,
2013-09-09 17:50:00,72.0,67.9,29.91,South,169,0.9,5.1,87,0.00,,,-99.99,open2300 version1.11,2013-09-09 21:50:00,
2013-09-09 17:55:00,72.0,67.9,29.91,SSE,157,0.4,4.0,87,0.00,,,-99.99,open2300 version1.11,2013-09-09 21:55:00,
2013-09-09 18:00:00,72.0,67.5,29.91,SSE,157,0.2,2.0,86,0.00,,,-99.99,open2300 version1.11,2013-09-09 22:00:00,
2013-09-09 18:05:00,72.0,67.5,29.90,South,171,0.3,2.0,86,0.00,,,-99.99,open2300 version1.11,2013-09-09 22:05:00,
2013-09-09 18:10:00,72.0,67.5,29.90,SSE,161,1.9,6.9,86,0.00,,,-99.99,open2300 version1.11,2013-09-09 22:10:00,
2013-09-09 18:15:00,72.0,67.5,29.91,SSE,160,0.9,7.4,86,0.00,,,-99.99,open2300 version1.11,2013-09-09 22:15:00,
2013-09-09 18:20:00,71.8,67.3,29.90,SSE,157,0.5,4.9,86,0.00,,,-99.99,open2300 version1.11,2013-09-09 22:20:00,
2013-09-09 18:25:00,71.8,67.3,29.90,SSE,160,1.8,7.4,86,0.00,,,-99.99,open2300 version1.11,2013-09-09 22:25:00,
2013-09-09 18:30:00,71.8,67.3,29.90,SE,135,0.2,2.2,86,0.00,,,-99.99,open2300 version1.11,2013-09-09 22:30:00,
2013-09-09 18:35:00,71.8,67.3,29.90,SSE,151,2.3,8.3,86,0.00,,,-99.99,open2300 version1.11,2013-09-09 22:35:00,
2013-09-09 18:40:00,71.8,67.3,29.90,SSE,158,1.6,6.7,86,0.00,,,-99.99,open2300 version1.11,2013-09-09 22:40:00,
2013-09-09 18:45:00,71.8,67.3,29.90,SSE,157,0.7,3.6,86,0.00,,,-99.99,open2300 version1.11,2013-09-09 22:45:00,
2013-09-09 18:50:00,71.6,67.2,29.89,SSE,163,0.7,4.9,86,0.00,,,-99.99,open2300 version1.11,2013-09-09 22:50:00,
2013-09-09 18:55:00,71.6,67.5,29.90,SSE,157,0.1,2.5,87,0.00,,,-99.99,open2300 version1.11,2013-09-09 22:55:00,
2013-09-09 19:00:00,71.4,67.3,29.90,SSE,157,1.4,8.1,87,0.00,,,-99.99,open2300 version1.11,2013-09-09 23:00:00,
2013-09-09 19:05:00,71.4,67.3,29.89,SSE,157,0.6,4.0,87,0.00,,,-99.99,open2300 version1.11,2013-09-09 23:05:00,
2013-09-09 19:10:00,71.4,67.0,29.89,SSE,157,0.5,4.7,86,0.00,,,-99.99,open2300 version1.11,2013-09-09 23:10:00,
2013-09-09 19:15:00,71.4,67.3,29.89,SSE,157,0.6,5.1,87,0.00,,,-99.99,open2300 version1.11,2013-09-09 23:15:00,
2013-09-09 19:20:00,71.4,67.3,29.89,SSE,157,0.1,1.3,87,0.00,,,-99.99,open2300 version1.11,2013-09-09 23:20:00,
2013-09-09 19:25:00,71.2,67.2,29.88,SSE,157,0.6,2.9,87,0.00,,,-99.99,open2300 version1.11,2013-09-09 23:25:00,
2013-09-09 19:30:00,71.2,67.2,29.88,SSE,157,0.0,0.0,87,0.00,,,-99.99,open2300 version1.11,2013-09-09 23:30:00,
2013-09-09 19:35:00,71.1,67.0,29.88,SSE,157,0.4,2.0,87,0.00,,,-99.99,open2300 version1.11,2013-09-09 23:35:00,
2013-09-09 19:40:00,70.9,66.8,29.88,SSE,157,0.1,1.3,87,0.00,,,-99.99,open2300 version1.11,2013-09-09 23:40:00,
2013-09-09 19:45:00,70.9,66.8,29.89,SSE,157,0.2,2.7,87,0.00,,,-99.99,open2300 version1.11,2013-09-09 23:45:00,
2013-09-09 19:50:00,70.7,66.6,29.89,SSE,157,0.0,0.0,87,0.00,,,-99.99,open2300 version1.11,2013-09-09 23:50:00,
2013-09-09 19:55:00,70.5,66.4,29.89,SSE,157,0.1,1.3,87,0.00,,,-99.99,open2300 version1.11,2013-09-09 23:55:00,
2013-09-09 20:00:00,70.5,66.4,29.89,SSE,157,0.0,0.0,87,0.00,,,-99.99,open2300 version1.11,2013-09-10 00:00:00,
2013-09-09 20:05:00,70.3,66.2,29.89,SSE,157,0.0,0.0,87,0.00,,,-99.99,open2300 version1.11,2013-09-10 00:05:00,
2013-09-09 20:10:00,70.2,66.1,29.89,SSE,157,0.0,0.7,87,0.00,,,-99.99,open2300 version1.11,2013-09-10 00:10:00,
2013-09-09 20:15:00,70.2,66.1,29.90,SSE,157,0.0,0.9,87,0.00,,,-99.99,open2300 version1.11,2013-09-10 00:15:00,
2013-09-09 20:20:00,70.0,65.9,29.89,SSE,157,0.0,0.0,87,0.00,,,-99.99,open2300 version1.11,2013-09-10 00:20:00,
2013-09-09 20:25:00,69.8,66.1,29.89,SSE,157,0.0,0.0,88,0.00,,,-99.99,open2300 version1.11,2013-09-10 00:25:00,
2013-09-09 20:30:00,69.8,66.1,29.90,SSE,157,0.0,0.0,88,0.00,,,-99.99,open2300 version1.11,2013-09-10 00:30:00,
2013-09-09 20:35:00,69.6,65.9,29.89,SSE,157,0.0,0.0,88,0.00,,,-99.99,open2300 version1.11,2013-09-10 00:35:00,
2013-09-09 20:40:00,69.6,65.9,29.90,SSE,157,0.0,0.0,88,0.00,,,-99.99,open2300 version1.11,2013-09-10 00:40:00,
2013-09-09 20:45:00,69.4,65.7,29.90,SSE,157,0.0,0.0,88,0.00,,,-99.99,open2300 version1.11,2013-09-10 00:45:00,
2013-09-09 20:50:00,69.4,65.7,29.90,SSE,157,0.0,0.0,88,0.00,,,-99.99,open2300 version1.11,2013-09-10 00:50:00,
2013-09-09 20:55:00,69.3,65.5,29.90,SSE,157,0.0,0.0,88,0.00,,,-99.99,open2300 version1.11,2013-09-10 00:55:00,
2013-09-09 21:00:00,69.1,65.7,29.90,SSE,157,0.0,0.0,89,0.00,,,-99.99,open2300 version1.11,2013-09-10 01:00:00,
2013-09-09 21:05:00,69.1,65.7,29.90,SSE,157,0.0,0.0,89,0.00,,,-99.99,open2300 version1.11,2013-09-10 01:05:00,
2013-09-09 21:10:00,69.1,65.7,29.90,SSE,157,0.0,0.0,89,0.00,,,-99.99,open2300 version1.11,2013-09-10 01:10:00,
2013-09-09 21:15:00,68.9,65.5,29.91,SSE,157,0.0,0.0,89,0.00,,,-99.99,open2300 version1.11,2013-09-10 01:15:00,
2013-09-09 21:20:00,68.9,65.5,29.90,SSE,157,0.4,3.1,89,0.00,,,-99.99,open2300 version1.11,2013-09-10 01:20:00,
2013-09-09 21:25:00,68.9,65.5,29.91,SSE,157,0.0,0.9,89,0.00,,,-99.99,open2300 version1.11,2013-09-10 01:25:00,
2013-09-09 21:30:00,68.7,65.3,29.90,SSE,157,0.0,0.0,89,0.00,,,-99.99,open2300 version1.11,2013-09-10 01:30:00,
2013-09-09 21:35:00,68.7,65.3,29.90,SSE,157,0.0,0.0,89,0.00,,,-99.99,open2300 version1.11,2013-09-10 01:35:00,
2013-09-09 21:40:00,68.7,65.3,29.90,SSE,157,0.3,2.2,89,0.00,,,-99.99,open2300 version1.11,2013-09-10 01:40:00,
2013-09-09 21:45:00,68.7,65.3,29.90,SSE,163,0.3,2.5,89,0.00,,,-99.99,open2300 version1.11,2013-09-10 01:45:00,
2013-09-09 21:50:00,68.7,65.3,29.90,South,180,0.1,1.6,89,0.00,,,-99.99,open2300 version1.11,2013-09-10 01:50:00,
2013-09-09 21:55:00,68.5,65.1,29.90,SSE,159,0.7,2.9,89,0.00,,,-99.99,open2300 version1.11,2013-09-10 01:55:00,
2013-09-09 22:00:00,68.5,65.1,29.90,SSE,157,0.8,4.9,89,0.00,,,-99.99,open2300 version1.11,2013-09-10 02:00:00,
2013-09-09 22:05:00,68.5,65.1,29.90,SSE,157,1.0,4.0,89,0.00,,,-99.99,open2300 version1.11,2013-09-10 02:05:00,
2013-09-09 22:10:00,68.5,65.1,29.90,SE,143,0.8,4.7,89,0.00,,,-99.99,open2300 version1.11,2013-09-10 02:10:00,
2013-09-09 22:15:00,68.5,65.1,29.89,SE,135,1.5,4.5,89,0.00,,,-99.99,open2300 version1.11,2013-09-10 02:15:00,
2013-09-09 22:20:00,68.5,65.1,29.89,SE,141,0.4,4.9,89,0.00,,,-99.99,open2300 version1.11,2013-09-10 02:20:00,
2013-09-09 22:25:00,68.4,65.0,29.90,SE,135,0.1,1.3,89,0.00,,,-99.99,open2300 version1.11,2013-09-10 02:25:00,
2013-09-09 22:30:00,68.4,65.0,29.90,SE,135,0.3,4.2,89,0.00,,,-99.99,open2300 version1.11,2013-09-10 02:30:00,
2013-09-09 22:35:00,68.4,65.0,29.90,SE,140,0.4,3.1,89,0.00,,,-99.99,open2300 version1.11,2013-09-10 02:35:00,
2013-09-09 22:40:00,68.2,65.1,29.90,SE,135,0.2,2.5,90,0.00,,,-99.99,open2300 version1.11,2013-09-10 02:40:00,
2013-09-09 22:45:00,68.2,65.1,29.90,SE,135,0.0,0.7,90,0.00,,,-99.99,open2300 version1.11,2013-09-10 02:45:00,
2013-09-09 22:50:00,68.2,65.1,29.90,SE,135,0.1,1.3,90,0.00,,,-99.99,open2300 version1.11,2013-09-10 02:50:00,
2013-09-09 22:55:00,68.2,65.1,29.90,SE,135,0.1,2.5,90,0.00,,,-99.99,open2300 version1.11,2013-09-10 02:55:00,
2013-09-09 23:00:00,68.2,65.1,29.89,SE,135,0.4,2.0,90,0.00,,,-99.99,open2300 version1.11,2013-09-10 03:00:00,
2013-09-09 23:05:00,68.2,65.1,29.89,SSE,148,0.5,4.7,90,0.00,,,-99.99,open2300 version1.11,2013-09-10 03:05:00,
2013-09-09 23:10:00,68.2,65.1,29.89,SE,135,0.1,1.6,90,0.00,,,-99.99,open2300 version1.11,2013-09-10 03:10:00,
2013-09-09 23:15:00,68.2,65.1,29.89,SE,135,0.1,2.2,90,0.00,,,-99.99,open2300 version1.11,2013-09-10 03:15:00,
2013-09-09 23:20:00,68.2,65.1,29.89,SE,135,0.0,0.0,90,0.00,,,-99.99,open2300 version1.11,2013-09-10 03:20:00,
2013-09-09 23:25:00,68.0,64.9,29.89,SE,135,0.0,0.9,90,0.00,,,-99.99,open2300 version1.11,2013-09-10 03:25:00,
2013-09-09 23:30:00,68.0,64.9,29.89,SE,135,0.5,2.0,90,0.00,,,-99.99,open2300 version1.11,2013-09-10 03:30:00,
2013-09-09 23:35:00,67.8,64.8,29.89,SE,142,0.6,4.7,90,0.00,,,-99.99,open2300 version1.11,2013-09-10 03:35:00,
2013-09-09 23:40:00,67.8,64.8,29.89,SE,144,0.5,3.8,90,0.00,,,-99.99,open2300 version1.11,2013-09-10 03:40:00,
2013-09-09 23:45:00,67.8,64.8,29.89,SE,135,0.4,2.2,90,0.00,,,-99.99,open2300 version1.11,2013-09-10 03:45:00,
2013-09-09 23:50:00,67.8,64.8,29.89,SE,135,0.1,1.1,90,0.00,,,-99.99,open2300 version1.11,2013-09-10 03:50:00,
2013-09-09 23:55:00,67.8,64.8,29.88,SE,135,0.0,0.0,90,0.00,,,-99.99,open2300 version1.11,2013-09-10 03:55:00,